| time (UTC) | temp F | wind direction | speed MPH | gust MPH | rain 1hr in | rain 24hr in | rain mn in | humidity % | barometer mb |
| 20260901191031 | 99 | 75 | 4.0 | 6.0 | 0.00 | 0.00 | 0.00 | 38 | 1018.8 |
| 20260901190016 | 98 | 116 | 6.0 | 9.0 | 0.00 | 0.00 | 0.00 | 38 | 1019.0 |
| 20260901185651 | 98 | 111 | 4.0 | 7.0 | 0.00 | 0.00 | 0.00 | 38 | 1014.5 |
| 20260901185018 | 98 | 112 | 4.0 | 6.0 | 0.00 | 0.00 | 0.00 | 39 | 1019.2 |
| 20260901184020 | 96 | 148 | 4.0 | 6.0 | 0.00 | 0.00 | 0.00 | 41 | 1019.4 |
| 20260901183023 | 97 | 150 | 5.0 | 8.0 | 0.00 | 0.00 | 0.00 | 40 | 1019.5 |
| 20260901182651 | 96 | 130 | 4.0 | 7.0 | 0.00 | 0.00 | 0.00 | 40 | 1015.0 |
| 20260901182019 | 97 | 127 | 4.0 | 8.0 | 0.00 | 0.00 | 0.00 | 39 | 1019.6 |
| 20260901181047 | 96 | 135 | 5.0 | 10.0 | 0.00 | 0.00 | 0.00 | 40 | 1019.7 |
| 20260901180029 | 96 | 172 | 5.0 | 9.0 | 0.00 | 0.00 | 0.00 | 42 | 1019.8 |
| 20260901175651 | 96 | 170 | 4.0 | 6.0 | 0.00 | 0.00 | 0.00 | 41 | 1015.6 |
| 20260901175031 | 96 | 130 | 5.0 | 8.0 | 0.00 | 0.00 | 0.00 | 42 | 1020.0 |
| 20260901174033 | 96 | 153 | 4.0 | 8.0 | 0.00 | 0.00 | 0.00 | 41 | 1020.1 |
| 20260901173017 | 95 | 140 | 4.0 | 6.0 | 0.00 | 0.00 | 0.00 | 42 | 1020.3 |
| 20260901172651 | 95 | 113 | 4.0 | 6.0 | 0.00 | 0.00 | 0.00 | 42 | 1016.0 |
| 20260901172059 | 95 | 119 | 5.0 | 7.0 | 0.00 | 0.00 | 0.00 | 44 | 1020.4 |
| 20260901171021 | 95 | 77 | 4.0 | 7.0 | 0.00 | 0.00 | 0.00 | 43 | 1020.4 |
| 20260901170023 | 95 | 86 | 4.0 | 7.0 | 0.00 | 0.00 | 0.00 | 43 | 1020.4 |
| 20260901165651 | 94 | 56 | 4.0 | 6.0 | 0.00 | 0.00 | 0.00 | 43 | 1016.2 |
| 20260901165025 | 95 | 51 | 3.0 | 6.0 | 0.00 | 0.00 | 0.00 | 44 | 1020.6 |
| 20260901164027 | 97 | 117 | 5.0 | 6.0 | 0.00 | 0.00 | 0.00 | 41 | 1020.6 |
| 20260901163029 | 96 | 70 | 3.0 | 5.0 | 0.00 | 0.00 | 0.00 | 44 | 1020.6 |
| 20260901162651 | 96 | 45 | 2.0 | 7.0 | 0.00 | 0.00 | 0.00 | 45 | 1016.2 |
| 20260901162112 | 95 | 98 | 2.0 | 4.0 | 0.00 | 0.00 | 0.00 | 47 | 1020.6 |
| 20260901161016 | 96 | 88 | 3.0 | 5.0 | 0.00 | 0.00 | 0.00 | 46 | 1020.6 |
| 20260901160018 | 94 | 122 | 3.0 | 5.0 | 0.00 | 0.00 | 0.00 | 52 | 1020.6 |
| 20260901155651 | 93 | 79 | 2.0 | 5.0 | 0.00 | 0.00 | 0.00 | 53 | 1016.4 |
| 20260901155020 | 93 | 273 | 2.0 | 4.0 | 0.00 | 0.00 | 0.00 | 54 | 1020.6 |
| 20260901154016 | 92 | 113 | 2.0 | 5.0 | 0.00 | 0.00 | 0.00 | 57 | 1020.6 |
| 20260901153024 | 91 | 43 | 3.0 | 6.0 | 0.00 | 0.00 | 0.00 | 59 | 1020.6 |
| 20260901152651 | 90 | 37 | 2.0 | 4.0 | 0.00 | 0.00 | 0.00 | 60 | 1016.8 |
| 20260901152026 | 91 | 97 | 3.0 | 4.0 | 0.00 | 0.00 | 0.00 | 60 | 1020.6 |
| 20260901151048 | 90 | 98 | 3.0 | 5.0 | 0.00 | 0.00 | 0.00 | 63 | 1020.6 |
| 20260901150031 | 87 | 208 | 2.0 | 3.0 | 0.00 | 0.00 | 0.00 | 67 | 1020.6 |
| 20260901145651 | 88 | 111 | 1.0 | 3.0 | 0.00 | 0.00 | 0.00 | 66 | 1017.0 |
| 20260901145033 | 87 | 206 | 1.0 | 2.0 | 0.00 | 0.00 | 0.00 | 69 | 1020.6 |
| 20260901144017 | 86 | 86 | 2.0 | 4.0 | 0.00 | 0.00 | 0.00 | 71 | 1020.6 |
| 20260901143020 | 86 | 107 | 2.0 | 4.0 | 0.00 | 0.00 | 0.00 | 72 | 1020.6 |
| 20260901142651 | 84 | 139 | 3.0 | 4.0 | 0.00 | 0.00 | 0.00 | 73 | 1017.3 |
| 20260901142022 | 84 | 50 | 2.0 | 5.0 | 0.00 | 0.00 | 0.00 | 75 | 1020.5 |
| 20260901141023 | 83 | 115 | 2.0 | 4.0 | 0.00 | 0.00 | 0.00 | 78 | 1020.5 |
| 20260901140026 | 81 | 91 | 0.0 | 2.0 | 0.00 | 0.00 | 0.00 | 84 | 1020.6 |
| 20260901135651 | 80 | 121 | 0.0 | 3.0 | 0.00 | 0.00 | 0.00 | 85 | 1017.8 |
| 20260901135028 | 80 | 113 | 3.0 | 6.0 | 0.00 | 0.00 | 0.00 | 85 | 1020.6 |
| 20260901134030 | 80 | 125 | 3.0 | 5.0 | 0.00 | 0.00 | 0.00 | 87 | 1020.4 |
| 20260901133026 | 79 | 347 | 1.0 | 3.0 | 0.00 | 0.00 | 0.00 | 90 | 1020.3 |
| 20260901132651 | 77 | 113 | 2.0 | 3.0 | 0.00 | 0.00 | 0.00 | 91 | 1017.8 |
| 20260901132056 | 77 | 134 | 1.0 | 4.0 | 0.00 | 0.00 | 0.00 | 93 | 1020.4 |
| 20260901131018 | 75 | 0.0 | 0.0 | 0.00 | 0.00 | 0.00 | 98 | 1020.4 | |
| 20260901130020 | 74 | 0.0 | 0.0 | 0.00 | 0.00 | 0.00 | 99 | 1020.2 | |
| 20260901125651 | 73 | 0 | 0.0 | 0.0 | 0.00 | 0.00 | 0.00 | 99 | 1018.1 |
| 20260901125022 | 73 | 0.0 | 0.0 | 0.00 | 0.00 | 0.00 | 99 | 1020.1 | |
| 20260901124024 | 72 | 68 | 0.0 | 2.0 | 0.00 | 0.00 | 0.00 | 99 | 1020.1 |
| 20260901123027 | 72 | 0.0 | 0.0 | 0.00 | 0.00 | 0.00 | 99 | 1020.0 | |
| 20260901122651 | 72 | 0 | 0.0 | 0.0 | 0.00 | 0.00 | 0.00 | 99 | 1018.2 |
| 20260901122028 | 72 | 0.0 | 0.0 | 0.00 | 0.00 | 0.00 | 99 | 1019.9 | |
| 20260901121031 | 73 | 0.0 | 0.0 | 0.00 | 0.00 | 0.00 | 99 | 1019.9 | |
| 20260901120033 | 73 | 0.0 | 3.0 | 0.00 | 0.00 | 0.00 | 99 | 1019.9 | |
| 20260901115651 | 72 | 135 | 0.0 | 2.0 | 0.00 | 0.00 | 0.00 | 99 | 1018.0 |
| 20260901115017 | 73 | 0.0 | 0.0 | 0.00 | 0.00 | 0.00 | 99 | 1019.9 | |
| 20260901114039 | 73 | 0.0 | 0.0 | 0.00 | 0.00 | 0.00 | 99 | 1019.8 | |
| 20260901113021 | 73 | 0.0 | 0.0 | 0.00 | 0.00 | 0.00 | 98 | 1019.8 | |
| 20260901112651 | 73 | 0 | 0.0 | 0.0 | 0.00 | 0.00 | 0.00 | 98 | 1017.8 |
| 20260901112019 | 74 | 0.0 | 0.0 | 0.00 | 0.00 | 0.00 | 98 | 1019.8 | |
| 20260901111020 | 74 | 163 | 1.0 | 4.0 | 0.00 | 0.00 | 0.00 | 98 | 1019.8 |
| 20260901110022 | 74 | 90 | 0.0 | 2.0 | 0.00 | 0.00 | 0.00 | 97 | 1019.8 |
| 20260901105651 | 73 | 93 | 1.0 | 3.0 | 0.00 | 0.00 | 0.00 | 97 | 1017.6 |
| 20260901105024 | 74 | 113 | 0.0 | 2.0 | 0.00 | 0.00 | 0.00 | 97 | 1019.7 |
| 20260901104020 | 74 | 109 | 1.0 | 4.0 | 0.00 | 0.00 | 0.00 | 96 | 1019.8 |
| 20260901103016 | 75 | 129 | 1.0 | 4.0 | 0.00 | 0.00 | 0.00 | 95 | 1019.9 |
| 20260901102651 | 74 | 134 | 1.0 | 2.0 | 0.00 | 0.00 | 0.00 | 95 | 1017.8 |
| 20260901102030 | 75 | 0.0 | 0.0 | 0.00 | 0.00 | 0.00 | 95 | 1019.8 | |
| 20260901101032 | 75 | 138 | 3.0 | 4.0 | 0.00 | 0.00 | 0.00 | 94 | 1019.8 |
| 20260901100016 | 75 | 121 | 1.0 | 3.0 | 0.00 | 0.00 | 0.00 | 94 | 1019.8 |
| 20260901095651 | 75 | 123 | 0.0 | 3.0 | 0.00 | 0.00 | 0.00 | 93 | 1017.6 |
| 20260901095018 | 75 | 121 | 4.0 | 6.0 | 0.00 | 0.00 | 0.00 | 93 | 1019.8 |
| 20260901094020 | 75 | 61 | 2.0 | 5.0 | 0.00 | 0.00 | 0.00 | 92 | 1019.8 |
| 20260901093022 | 76 | 124 | 2.0 | 5.0 | 0.00 | 0.00 | 0.00 | 91 | 1019.9 |
| 20260901092651 | 75 | 129 | 2.0 | 5.0 | 0.00 | 0.00 | 0.00 | 90 | 1017.6 |
| 20260901092024 | 76 | 103 | 3.0 | 6.0 | 0.00 | 0.00 | 0.00 | 90 | 1019.9 |
| 20260901091026 | 76 | 128 | 4.0 | 6.0 | 0.00 | 0.00 | 0.00 | 88 | 1019.9 |
| 20260901090028 | 76 | 156 | 4.0 | 6.0 | 0.00 | 0.00 | 0.00 | 87 | 1019.9 |
| 20260901085651 | 76 | 121 | 1.0 | 4.0 | 0.00 | 0.00 | 0.00 | 86 | 1017.4 |
| 20260901085030 | 76 | 135 | 2.0 | 4.0 | 0.00 | 0.00 | 0.00 | 86 | 1019.8 |
| 20260901084032 | 76 | 122 | 3.0 | 6.0 | 0.00 | 0.00 | 0.00 | 85 | 1019.8 |
| 20260901083016 | 76 | 81 | 2.0 | 6.0 | 0.00 | 0.00 | 0.00 | 84 | 1019.7 |
| 20260901082651 | 76 | 128 | 1.0 | 3.0 | 0.00 | 0.00 | 0.00 | 83 | 1017.4 |
| 20260901082018 | 77 | 97 | 1.0 | 5.0 | 0.00 | 0.00 | 0.00 | 83 | 1019.8 |
| 20260901081040 | 77 | 73 | 1.0 | 3.0 | 0.00 | 0.00 | 0.00 | 82 | 1019.8 |
| 20260901080016 | 77 | 94 | 2.0 | 4.0 | 0.00 | 0.00 | 0.00 | 81 | 1019.8 |
| 20260901075651 | 77 | 102 | 2.0 | 5.0 | 0.00 | 0.00 | 0.00 | 80 | 1017.3 |
| 20260901075044 | 78 | 54 | 0.0 | 2.0 | 0.00 | 0.00 | 0.00 | 80 | 1019.8 |
| 20260901074026 | 78 | 38 | 1.0 | 4.0 | 0.00 | 0.00 | 0.00 | 79 | 1019.7 |
| 20260901073028 | 78 | 128 | 2.0 | 5.0 | 0.00 | 0.00 | 0.00 | 77 | 1019.7 |
| 20260901072651 | 78 | 116 | 2.0 | 3.0 | 0.00 | 0.00 | 0.00 | 77 | 1017.1 |
| 20260901072030 | 79 | 95 | 2.0 | 4.0 | 0.00 | 0.00 | 0.00 | 76 | 1019.6 |
| 20260901071032 | 79 | 109 | 3.0 | 5.0 | 0.00 | 0.00 | 0.00 | 76 | 1019.6 |